Hourly Data Report for October 14, 2015

All times are specified in Local Standard Time (LST). Add 1 hour to adjust for Daylight Saving Time where and when it is observed.

WINNIPEG A CS
MANITOBA

49°55'00.000" N
97°14'58.000" W
238.70 m
502S001
71849
XWG

Download Data

Hourly Data (October 2015)
Hourly Data Report for October 14, 2015
Temp Definition
°C
Dew Point Temp Definition
°C
Rel Hum Definition
%
Wind Dir Definition
10's deg

Wind Spd Definition
km/h
Visibility Definition
km
Stn Press Definition
kPa
Hmdx Definition


Wind Chill Definition


Weather Definition


TIME
00:00 6.8 2.9 76 27 18   98.03     LegendNANA
01:00 6.0 2.6 79 27 18   98.02     LegendNANA
02:00 4.8 2.0 82 27 15   98.04     LegendNANA
03:00 4.7 2.1 84 28 16   98.05     LegendNANA
04:00 5.3 2.4 82 28 17   98.10     LegendNANA
05:00 3.3 1.3 87 28 13   98.15     LegendNANA
06:00 3.6 1.5 86 26 15   98.16     LegendNANA
07:00 3.4 1.3 86 27 16   98.20     LegendNANA
08:00 5.1 2.1 81 27 19   98.21     LegendNANA
09:00 8.2 3.6 73 27 20   98.24     LegendNANA
10:00 10.8 4.0 63 29 21   98.26     LegendNANA
11:00 12.3 3.9 56 29 22   98.26     LegendNANA
12:00 13.8 4.6 54 29 21   98.25     LegendNANA
13:00 15.3 4.5 49 29 23   98.23     LegendNANA
14:00 16.3 0.7 35 31 31   98.18     LegendNANA
15:00 15.8 -0.6 33 29 31   98.16     LegendNANA
16:00 15.1 -0.8 34 29 22   98.13     LegendNANA
17:00 13.0 0.9 44 30 16   98.12     LegendNANA
18:00 8.9 2.0 62 28 12   98.13     LegendNANA
19:00 8.1 1.1 61 27 14   98.15     LegendNANA
20:00 7.6 1.2 64 26 15   98.14     LegendNANA
21:00 6.8 1.2 67 28 17   98.16     LegendNANA
22:00 3.5 0.2 79 28 14   98.18     LegendNANA
23:00 4.3 0.7 77 28 17   98.18     LegendNANA

Notes on Data Quality.

Legend

  • E = Estimated
  • M = Missing
  • NA = Not Available
  • ‡ = Partner data that is not subject to review by the National Climate Archives
Date modified: